Miscellaneous Local Product
Issued by NWS Hastings, NE

Home | Current Version | Previous Version | Graphics & Text | Print | Product List | Glossary On
Versions: 1 2 3 4 5 6 7 8 9 10 11 12 13 14 15 16 17 18 19 20 21 22 23 24 25 26 27 28 29 30 31 32 33 34 35 36 37 38 39 40 41 42 43 44 45 46 47 48 49 50
000
AXUS43 KGID 030702
MISGRI

GID CWA HOURLY WEATHER ROUNDUP
NATIONAL WEATHER SERVICE HASTINGS NE
100 AM CST SAT DEC 03 2016

NOTE: "FAIR" INDICATES FEW OR NO CLOUDS BELOW 12,000 FEET WITH NO
SIGNIFICANT WEATHER AND/OR OBSTRUCTIONS TO VISIBILITY.

...SOUTH CENTRAL NEBRASKA...

CITY           SKY/WX    TMP DP  RH WIND       PRES   REMARKS
GRAND ISLAND   NOT AVBL
HASTINGS       CLOUDY    27  23  85 S5        30.32F WCI  22
KEARNEY        MOCLDY    27  19  74 SW5       30.31S WCI  21
ORD            NOT AVBL
YORK           PTCLDY    27  25  93 S6        30.33F WCI  20
AURORA         CLEAR     28  26  91 S8        30.32F WCI  20
LEXINGTON      CLOUDY    28  25  86 S3        30.28F
HOLDREGE       CLOUDY    29  25  82 S6        30.29F WCI  23
HEBRON         CLOUDY    26  23  89 CALM      30.34F

...NEBRASKA PANHANDLE...

CITY           SKY/WX    TMP DP  RH WIND       PRES   REMARKS
CHADRON        CLOUDY    16  12  84 CALM      30.14F
ALLIANCE       MOCLDY    15  12  88 S8        30.15F WCI   4
SCOTTSBLUFF    NOT AVBL
SIDNEY         PTCLDY    18  14  84 S7        30.17F WCI   9

...WESTERN AND NORTH CENTRAL NEBRASKA...

CITY           SKY/WX    TMP DP  RH WIND       PRES   REMARKS
VALENTINE      NOT AVBL
AINSWORTH      CLEAR     20  18  94 S6        30.21F WCI  12
ONEILL         CLEAR     26  25  94 S8        30.26S WCI  18
BROKEN BOW     MOCLDY    20  18  92 CALM      30.26S
IMPERIAL       CLOUDY    28  22  78 S8        30.24F WCI  20
NORTH PLATTE   NOT AVBL
MCCOOK         CLOUDY    30  23  75 S3        30.28F

...EASTERN NEBRASKA...

CITY           SKY/WX    TMP DP  RH WIND       PRES   REMARKS
NORFOLK        CLEAR     24  21  88 S8        30.31R WCI  15
SO SIOUX CITY  FOG       26  24  92 CALM      30.33S VSB 3/4
COLUMBUS       CLEAR     23  19  86 S6        30.34R WCI  16
ALBION         PTCLDY    23  21  92 CALM      30.31R
OMAHA EPPLEY   MOCLDY    25  21  85 SE7       30.37R WCI  17
OFFUTT AFB     PTCLDY    23  23 100 S2        30.36R
MILLARD        PTCLDY    27  25  91 CALM      30.37R
LINCOLN        PTCLDY    26  23  88 CALM      30.37S
NEBRASKA CITY  CLOUDY    29  25  85 SW3       30.35F
BEATRICE       CLOUDY    27  25  92 CALM      30.34F
FALLS CITY     NOT AVBL

...NORTHERN KANSAS...

CITY           SKY/WX    TMP DP  RH WIND       PRES   REMARKS
GOODLAND       NOT AVBL
HILL CITY      NOT AVBL
NORTON         CLOUDY    30  21  69 S3        30.30
PHILLIPSBURG   CLOUDY    27  23  86 NW3       30.32F
SMITH CENTER   CLOUDY    25  23  93 CALM      30.33F
BELOIT         CLOUDY    28  25  86 CALM      30.34S
RUSSELL        NOT AVBL
CONCORDIA      NOT AVBL



USA.gov is the U.S. government's official web portal to all federal, state and local government web resources and services.